Вернуться в каталог

STARLINK-6176

АктивенСвязьVLEO
NORAD 56388·PAYLOAD·🇺🇸 United States

Запущен May 4, 2023 с Cape Canaveral Space Force Station

Loading…

Ближайшие Пролёты (ближайшие 24 часа)

TLE

СвежийSource: CelesTrak SupGP

Эпоха: Sep 14, 2026, 21:46 UTC

1 56388C 23061Q   26257.90743056  .00004750  00000+0  17208-3 0  2571
2 56388  43.0007 209.6698 0001056 256.2922  99.5574 15.27570104    18

Отслеживайте STARLINK-6176 в реальном времени с AllMySat

Download on the App Store